Weather History for Bettles, AK

Change the Weather History Date:

Monday, March 3, 2014

  Actual Average Record
Temperature  
Mean Temperature 2 °F -  
Max Temperature 17 °F 9 °F 35 °F (1957)
Min Temperature -13 °F -11 °F -51 °F (1971)
Degree Days  
Heating Degree Days 63    
Moisture  
Dew Point 1 °F    
Average Humidity 67    
Maximum Humidity 91    
Minimum Humidity 42    
Precipitation  
Precipitation 0.01 in - - ()
Snow  
Snow 0.00 in - - ()
Snow Depth 29.00 in    
Sea Level Pressure  
Sea Level Pressure 30.06 in    
Wind  
Wind Speed 4 mph (North)    
Max Wind Speed 13 mph    
Max Gust Speed 17 mph    
Visibility 9 miles    
Events Snow    
Averages and records for this station are not official NWS values.
T = Trace of Precipitation, MM = Missing Value Source: NWS Daily Summary

Daily Weather History Graph

Daily Weather History Graph

Search for Another Location

Airport:

Trip Planner

Search our weather history database for the weather conditions in past years. The results will help you decide how hot, cold, wet, or windy it might be!

Date:

Astronomy

Mar. 03, 2014 Rise Set
Actual Time 8:12 AM AKST 6:24 PM AKST
Civil Twilight 7:19 AM AKST 7:18 PM AKST
Nautical Twilight 6:18 AM AKST 8:20 PM AKST
Astronomical Twilight 5:13 AM AKST 9:25 PM AKST
Moon 8:06 AM AKST (3/3) 11:18 PM AKST (3/3)
Length of Visible Light 11h 58m
Length of Day
10h 12m
Waxing Crescent, 9% of the Moon is Illuminated
Mar 3
Waxing Crescent
Mar 8
First Quarter
Mar 16
Full
Mar 23
Last Quarter
Mar 30
New

Hourly Weather History & Observations

Time (AKST) Temp. Windchill Dew Point Humidity Pressure Visibility Wind Dir Wind Speed Gust Speed Precip Events Conditions
12:53 AM 8.1 °F - 3.0 °F 80% 30.14 in 10.0 mi Calm Calm - N/A   Mostly Cloudy
1:53 AM 1.9 °F - -4.0 °F 76% 30.14 in 10.0 mi Calm Calm - N/A   Scattered Clouds
2:53 AM 1.9 °F - -2.9 °F 80% 30.13 in 10.0 mi Calm Calm - N/A   Partly Cloudy
3:53 AM -0.0 °F -7.9 °F -2.0 °F 91% 30.12 in 10.0 mi North 3.5 mph - N/A   Partly Cloudy
4:53 AM 1.9 °F -7.6 °F -4.0 °F 76% 30.11 in 10.0 mi North 4.6 mph - N/A   Clear
5:53 AM 3.9 °F -8.2 °F -2.0 °F 76% 30.09 in 10.0 mi NNE 6.9 mph - N/A   Clear
6:53 AM 6.1 °F -5.6 °F -0.9 °F 73% 30.09 in 10.0 mi North 6.9 mph - N/A   Scattered Clouds
7:53 AM 5.0 °F -6.9 °F -2.0 °F 73% 30.09 in 10.0 mi North 6.9 mph - N/A   Scattered Clouds
8:53 AM 6.1 °F -2.8 °F -0.0 °F 76% 30.09 in 10.0 mi North 4.6 mph - N/A   Scattered Clouds
9:53 AM 8.1 °F -2.0 °F -0.9 °F 67% 30.09 in 10.0 mi North 5.8 mph - N/A   Mostly Cloudy
10:53 AM 10.0 °F 3.6 °F -0.0 °F 64% 30.08 in 10.0 mi NNW 3.5 mph - N/A   Mostly Cloudy
11:53 AM 12.0 °F -2.7 °F 1.0 °F 61% 30.06 in 10.0 mi NNE 12.7 mph 17.3 mph N/A   Mostly Cloudy
12:53 PM 14.0 °F 3.9 °F 1.0 °F 56% 30.05 in 10.0 mi North 6.9 mph - N/A   Mostly Cloudy
1:53 PM 15.1 °F 4.2 °F 1.9 °F 56% 30.04 in 10.0 mi NNE 8.1 mph - N/A   Mostly Cloudy
2:53 PM 16.0 °F 7.4 °F 3.0 °F 57% 30.03 in 10.0 mi North 5.8 mph - N/A   Mostly Cloudy
3:53 PM 17.1 °F 6.6 °F 3.0 °F 54% 30.01 in 10.0 mi NNE 8.1 mph - N/A   Mostly Cloudy
4:53 PM 16.0 °F 7.4 °F 3.0 °F 57% 30.01 in 10.0 mi North 5.8 mph - N/A   Mostly Cloudy
5:53 PM 16.0 °F 6.3 °F 3.0 °F 57% 30.00 in 10.0 mi NNW 6.9 mph - N/A   Mostly Cloudy
6:53 PM 14.0 °F 3.9 °F 1.9 °F 59% 30.01 in 10.0 mi NNW 6.9 mph - N/A   Mostly Cloudy
7:53 PM 12.9 °F 1.6 °F 3.9 °F 67% 30.01 in 10.0 mi North 8.1 mph - N/A   Mostly Cloudy
8:53 PM 12.0 °F 1.5 °F 3.9 °F 70% 30.02 in 7.0 mi North 6.9 mph - N/A Snow Light Snow
9:53 PM 10.9 °F 0.2 °F 5.0 °F 77% 30.02 in 3.0 mi North 6.9 mph - N/A Snow Light Snow
10:53 PM 10.9 °F -1.8 °F 3.9 °F 73% 30.02 in 3.0 mi North 9.2 mph - N/A Snow Light Snow
11:53 PM 10.0 °F -0.9 °F 3.0 °F 73% 30.03 in 7.0 mi North 6.9 mph - N/A Snow Light Snow